Showing default

OAO 2, 3597

Orbit data source: Space-Track

OAO 2, 3597 is a payload satellite owned by GSFC (US) in LEO that was launched on Sat, 07 Dec 1968 UTC via an ATLAS SLV-3C CENTAUR launch vehicle from the Air Force Eastern Test Range (AFETR). Payload-class satellites include a variety of spacecraft equipped with specific instruments for various scientific and technological missions. These include communications satellites like Starlink; space stations such as the ISS; scientific satellites like the Hubble; Earth observation satellites from companies like Planet Labs, Umbra, and HawkEye 360; GPS; miniature CubeSats for education and research; and military/defense satellites.

Loading next visibility...
Identifier
3597, 1968-110A
Orbit
LEO
Country
Flag of USUS
Related business
Manufacturer
Grummann
Mission
Spacecraft
Bus & Motor
OAO, Unknown motor
Mass
2,018 kg wet, 2,018 kg dry
Launch date (UTC)
1968-12-07 (57 years ago)
Launch vehicle
ATLAS SLV-3C CENTAUR
Launch site
Air Force Eastern Test Range (AFETR)
Object type
Payload
Rocket body
Debris
Shape & HBR
Unknown
Radar Cross Section
Large (>1 m²)

Expand to show TLE details & history
Last TLE update: 20 hours ago

TLE from 20 hours ago
0 OAO 2
1 03597U 68110A   26125.49025015  .00000223  00000-0  65166-4 0  9997
2 03597  34.9943 308.0822 0006260 290.6373  69.3646 14.47336391 27335
Epoch: 2026-05-05T11:45Z
TLE epoch observation values (Epoch: 2026-05-05T11:45:57.612Z)
Latitude
-0.00005°
Longitude
-91.77226°
Altitude
731.738 km
Speed
7.492 km/s
True Right ascension
20h 32m 19s
True Declination
0° 00' 00"
Sunlit
Object was in daylight at epoch
Visualization orbit readout
Latitude
Unknown
Longitude
Unknown
Altitude
Unknown
Speed
Unknown
Apparent Right ascension
Unknown
Apparent Declination
Unknown
Sunlit
N/A
Visualization observer readout
Local Sidereal Time
15:40:49
Azimuth
Unknown
Elevation
Unknown
Doppler factor
Unknown
Orbital elements
Apogee altitude
741.959 km
Perigee altitude
733.05 km
Semi-major axis
7,115.641 km
Eccentricity
0.00063
Inclination
34.9943°
RAAN
308.0822°
Arg. of periapsis
290.6373°
True anomaly
69.43175°
Mean anomaly
69.3646°
Eccentric anomaly
69.39817°
Mean motion
3.61595 °/min
Orbital period
99.56 mins
BSTAR
0.000065166
Loading maneuver chart data...
Computing Atmospheric mass density...
Loading historical data...
Loading historical data...
Loading historical data...
Loading historical data...
Loading historical data...
Loading historical data...
Loading historical data...
Other satellites on launch #110 in the year 1968 (1968-12-07 UTC)

Documentation

Showing up to 5 results
|